This is the latest recevied weather packets stored in our database for station/object N8XHB. If no packets are shown the sender has not sent any weather packets the latest 10 day(s).
| Time | Temp. | Humidity | Pressure | Rain* | Wind** | Luminosity | Snow |
|---|---|---|---|---|---|---|---|
| 1778086498 | 12.78° C | 38% | 1013.7 hPa | 0 mm | - | 946 W/m² | - |
| 1778086194 | 12.22° C | 35% | 1013.5 hPa | 0 mm | - | 691 W/m² | - |
| 1778085891 | 11.67° C | 37% | 1013.6 hPa | 0 mm | - | 306 W/m² | - |
| 1778085589 | 11.67° C | 36% | 1013.6 hPa | 0 mm | - | 292 W/m² | - |
| 1778085283 | 11.67° C | 35% | 1013.4 hPa | 0 mm | - | 413 W/m² | - |
| 1778084978 | 12.22° C | 33% | 1013.6 hPa | 0 mm | - | 309 W/m² | - |
| 1778084677 | 12.22° C | 33% | 1013.4 hPa | 0 mm | - | 580 W/m² | - |
| 1778084374 | 12.22° C | 36% | 1013.8 hPa | 0 mm | - | 593 W/m² | - |
| 1778084072 | 12.22° C | 35% | 1013.6 hPa | 0 mm | - | 830 W/m² | - |
| 1778083769 | 12.22° C | 36% | 1013.7 hPa | 0 mm | - | 936 W/m² | - |
| 1778083466 | 12.22° C | 35% | 1013.8 hPa | 0 mm | - | 849 W/m² | - |
| 1778083164 | 11.67° C | 42% | 1013.8 hPa | 0 mm | - | 843 W/m² | - |
| 1778082861 | 11.11° C | 36% | 1013.8 hPa | 0 mm | - | 675 W/m² | - |
| 1778081742 | 12.78° C | 36% | 1013.6 hPa | 0 mm | - | 529 W/m² | - |
| 1778081440 | 12.22° C | 36% | 1013.6 hPa | 0 mm | - | 664 W/m² | - |
| 1778081137 | 12.22° C | 36% | 1013.7 hPa | 0 mm | - | 458 W/m² | - |
| 1778080835 | 12.78° C | 35% | 1013.8 hPa | 0 mm | - | 524 W/m² | - |
| 1778080532 | 12.22° C | 37% | 1013.6 hPa | 0 mm | - | 865 W/m² | - |
| 1778080230 | 11.67° C | 36% | 1013.8 hPa | 0 mm | - | 740 W/m² | - |
| 1778079926 | 11.11° C | 37% | 1013.8 hPa | 0 mm | - | 617 W/m² | - |
| 1778079623 | 11.67° C | 35% | 1013.6 hPa | 0 mm | - | 656 W/m² | - |
| 1778079319 | 11.67° C | 40% | 1013.6 hPa | 0 mm | - | 666 W/m² | - |
| 1778079017 | 11.67° C | 38% | 1013.6 hPa | 0 mm | - | 609 W/m² | - |
| 1778078713 | 11.67° C | 37% | 1013.6 hPa | 0 mm | - | 618 W/m² | - |
| 1778078411 | 11.67° C | 35% | 1013.4 hPa | 0 mm | - | 534 W/m² | - |
* Rain latest hour (hover to see other rain measurements)
** Current wind speed in m/s (hover to see current wind gust speed)